Regional Weather Roundup
Issued by NWS

Home | Current Version | Previous Version | Text Only | Print | Product List | Glossary Off
Versions: 1 2 3 4 5 6 7 8 9 10 11 12 13 14 15 16 17 18 19 20 21 22 23 24 25 26 27

000
ASUS45 KTFX 241810
RWRMT
MONTANA REGIONAL WEATHER ROUNDUP
NATIONAL WEATHER SERVICE GREAT FALLS MT
1200 PM MDT TUE MAY 24 2016

NOTE: "FAIR" INDICATES FEW OR NO CLOUDS BELOW 12000 FEET WITH NO
SIGNIFICANT WEATHER AND/OR OBSTRUCTIONS TO VISIBILITY.

MTZ001>007-043-241900-
WEST OF THE DIVIDE

CITY           SKY/WX    TMP DP  RH WIND       PRES   REMARKS
KALISPELL      CLOUDY    51  42  71 CALM      29.92S
MISSOULA       CLOUDY    50  41  71 W3        29.94F
BUTTE          CLOUDY    45  36  70 NW5       29.93S
MULLAN PASS    LGT RAIN  37  37 100 N5        29.93R VSB<1/4
ANACONDA         N/A     50  39  66 S7        29.91F
DEER LODGE       N/A     48  37  66 NW5       29.93S
EUREKA           N/A     55  41  58 NE5       29.92F
HAMILTON         N/A     52  39  62 CALM      29.91S
LIBBY            N/A     55  43  62 CALM      29.92S
PLAINS           N/A     57  43  59 CALM      29.94S
$$

MTZ008-052>055-241900-
SOUTHWEST MONTANA

CITY           SKY/WX    TMP DP  RH WIND       PRES   REMARKS
BOZEMAN        CLOUDY    49  40  71 VRB3      29.94S
DILLON         CLOUDY    50  38  63 VRB6      29.91S
ENNIS          MOSUNNY   50  37  62 N8        29.96F
TWIN BRIDGES     N/A     47  36  65 W2        29.93S
$$

MTZ009-010-012-014-046-048-049-054-241900-
EAST SLOPES AND CENTRAL MONTANA

CITY           SKY/WX    TMP DP  RH WIND       PRES   REMARKS
CUT BANK       CLOUDY    50  40  68 VRB3      29.89S
GREAT FALLS    PTSUNNY   53  38  56 VRB5      29.91S
MALMSTROM AFB  PTSUNNY   53  37  53 W7G13     29.91S
HELENA         PTSUNNY   53  38  56 VRB5      29.90F
CHOTEAU          N/A     52  39  62 E7        29.91S
CONRAD           N/A     51  51 100 NW3       29.94S
$$

MTZ011-013-016-021-045-047-050-051-241900-
NORTH CENTRAL MONTANA

CITY           SKY/WX    TMP DP  RH WIND       PRES   REMARKS
HAVRE          LGT RAIN  49  46  90 W10       29.89S FOG
LEWISTOWN      CLOUDY    54  39  57 VRB5      29.90F
N BAR RANCH    DRIZZLE   48  41  76 SE5       29.93S
CHINOOK          N/A     50  46  87 SW12      29.89S
$$

MTZ017>020-022>027-061-062-241900-
NORTHEAST MONTANA

CITY           SKY/WX    TMP DP  RH WIND       PRES   REMARKS
GLASGOW        CLOUDY    56  42  59 W16       29.87R
JORDAN           N/A     62  39  42 SW9       29.89S
SIDNEY         CLOUDY    64  39  39 W13       29.89R
WOLF POINT     CLOUDY    61  43  51 SW14      29.88R
PLENTYWOOD       N/A     57  43  58 SW10G16   29.86S
POPLAR           N/A     59  39  47 SW10G16   29.88S
SCOBEY           N/A     59  36  42 S20       29.85R
$$

MTZ028>42-056>058-241900-
SOUTHCENTRAL AND SOUTHEAST MONTANA

CITY           SKY/WX    TMP DP  RH WIND       PRES   REMARKS
BAKER          SUNNY     64  39  39 SW7       29.93S
BILLINGS       PTSUNNY   57  40  52 VRB5      29.91F
LIVINGSTON     CLOUDY    53  37  54 VRB5      29.90F
MILES CITY     SUNNY     62  41  46 VRB6      29.91S
FORSYTH          N/A     57  39  51 W3        29.91S
$$

REGIONAL REPORTS...DAKOTAS

CITY           SKY/WX    TMP DP  RH WIND       PRES   REMARKS
WILLISTON      CLOUDY    64  40  41 SW10      29.89R
MINOT          SUNNY     75  40  28 S13G22    29.88R
DICKINSON      SUNNY     66  37  34 SW10      29.90F
BEACH          PTSUNNY   61  37  41 W10       29.94F
CROSBY         PTSUNNY   63  39  42 SW15      29.89R
WATFORD CITY     N/A     64  39  39 SW10      29.90S
BISMARCK       SUNNY     73  41  31 N5        29.89F
GRAND FORKS    MOSUNNY   74  51  44 SW7       29.86R
FARGO          SUNNY     81  44  27 W13       29.84F
BUFFALO SD       N/A     70  40  33 E8G17     29.85F
RAPID CITY     PTSUNNY   67  44  43 S6        29.91F
$$

REGIONAL REPORTS...WYOMING/IDAHO/WASHINGTON

CITY           SKY/WX    TMP DP  RH WIND       PRES   REMARKS
GILLETTE       SUNNY     65  36  34 S6        29.90F
SHERIDAN       SUNNY     63  40  42 SE6       29.88F
BUFFALO WY       N/A     62  38  40 E14G21    29.91F
CODY           MOSUNNY   55  39  54 N3        29.88F
YELLOWSTONE LA   N/A     47  28  47 MISG      29.96S
IDAHO FALLS    PTSUNNY   62  37  39 CALM      29.86F
SALMON         PTSUNNY   54  37  54 N8        29.88F
BOISE          PTSUNNY   62  41  46 W12       29.85F
SPOKANE        PTSUNNY   54  46  74 VRB5      29.92S
$$

REGIONAL REPORTS...ALBERTA

CITY           SKY/WX    TMP DP  RH WIND       PRES   REMARKS
EDMONTON       CLOUDY    54  41  62 S6        29.86S
CALGARY        MOSUNNY   57  37  47 VRB6      29.85F
LETHBRIDGE     PTSUNNY   54  41  62 VRB2      29.88S
MEDICINE HAT     N/A     54  46  76 W12       29.85F
WATERTON GATE    N/A     57  37  47 NE3         N/A
ONEFOUR          N/A     50  41  71 NW13        N/A
$$

REGIONAL REPORTS...SASKATCHEWAN

CITY           SKY/WX    TMP DP  RH WIND       PRES   REMARKS
SWIFT CURRENT  CLOUDY    52  46  82 NW12      29.79S
REGINA         PTSUNNY   61  41  48 SW7       29.81R
SASKATOON      DRIZZLE   50  50 100 NE16G22   29.86R
CYPRESS HILLS    N/A     45  41  87 NW6         N/A
ROCKGLEN         N/A     55  45  67 SW18G24     N/A
ASSINIBOIA       N/A     57  43  58 SE7         N/A
$$




USA.gov is the U.S. government's official web portal to all federal, state and local government web resources and services.